Weather in Tehran

Iran     35˚39′42″N   51˚22′03″E
temp.,
°C
wind,
m/s
gust,
m/s
humid.,
%
clouds,
%
prec.,
mm/h
press.,
hPa
HPBL,
m
3 december, thu
thu300:30+8˚ssw3456100 0.0 1023372
03:30+7˚nne2369100 0.9 1023307
06:30+7˚wnw3476100 1.2 1024389
09:30+7˚s117197 2.8 1025404
12:30+9˚wsw116144 0.0 1024826
15:30+10˚w225550 0.1 1023928
18:30+9˚nnw23552 0.0 1025286
21:30+8˚n22541 0.0 1025216
4 december, fri
fri400:30+7˚n12565 0.0 102594
03:30+6˚n11603 0.0 102571
06:30+6˚nne12540 0.0 102548
09:30+7˚se23590 0.0 1025529
12:30+8˚se336432 0.1 1024801
15:30+8˚sse226748 0.4 1022692
18:30+7˚sse227060 0.1 1023464
21:30+7˚se116931 0.1 1023270
5 december, sat
sat500:30+6˚ne116652 0.0 1022288
03:30+6˚nne127071 0.1 1022391
06:30+6˚ene2272100 0.1 1022394
09:30+6˚se227298 0.1 1022548
12:30+6˚ese2277100 0.2 1020492
15:30+7˚ese2266100 0.3 1019681
18:30+7˚se126599 0.0 1020566
21:30+6˚se1173100 0.1 1020367
6 december, sun
sun600:30+5˚s2285100 0.8 1020286
03:30+3˚ne2286100 6.4 1019240
06:30+4˚nne1288100 3.4 1020251
09:30+3˚ssw2292100 5.3 1022237
12:30+3˚ssw2393100 1.2 1021238
15:30+3˚sw3393100 2.1 1021264
18:30+3˚wsw2390100 0.9 1023263
21:30+3˚nw127798 1.8 1024288
7 december, mon
mon700:30+2˚nnw2281100 0.6 1024287
03:30+3˚ssw017399 0.6 1024259
06:30+3˚s017499 0.0 1025328
09:30+3˚s118097 0.1 1026369
12:30+3˚s228499 0.3 1025336
15:30+4˚ssw117497 0.4 1025531
18:30+3˚sw227586 0.1 1026501
21:30+3˚w227490 0.3 1027359